TimeEDT,TemperatureF,Dew PointF,Humidity,Sea Level PressureIn,VisibilityMPH,Wind Direction,Wind SpeedMPH,Gust SpeedMPH,PrecipitationIn,Events,Conditions,WindDirDegrees,DateUTC
12:51 AM,48.2,48.2,100,29.90,8.0,Calm,Calm,-,N/A,Rain,Light Rain,0,2011-10-25 04:51:00
1:51 AM,48.9,46.9,93,29.89,10.0,Calm,Calm,-,0.00,,Overcast,0,2011-10-25 05:51:00
2:51 AM,44.1,44.1,100,29.89,1.8,Calm,Calm,-,N/A,,Partly Cloudy,0,2011-10-25 06:51:00
2:58 AM,46.4,46.4,100,29.88,4.0,Calm,Calm,-,N/A,,Mostly Cloudy,0,2011-10-25 06:58:00
3:51 AM,42.1,42.1,100,29.88,3.0,South,3.5,-,N/A,,Clear,170,2011-10-25 07:51:00
3:55 AM,41.0,41.0,100,29.87,1.8,South,3.5,-,N/A,,Clear,190,2011-10-25 07:55:00
3:59 AM,41.0,41.0,100,29.87,0.8,SSW,3.5,-,N/A,,Clear,210,2011-10-25 07:59:00
4:10 AM,42.8,42.8,100,29.87,1.5,Calm,Calm,-,N/A,,Clear,0,2011-10-25 08:10:00
4:20 AM,39.2,39.2,100,29.88,0.8,ENE,3.5,-,N/A,,Clear,60,2011-10-25 08:20:00
4:34 AM,39.2,39.2,100,29.88,0.8,Calm,Calm,-,N/A,,Mist,0,2011-10-25 08:34:00
4:51 AM,41.0,39.9,96,29.88,0.5,SW,3.5,-,N/A,Fog,Fog,230,2011-10-25 08:51:00
5:06 AM,39.2,39.2,100,29.88,1.0,Calm,Calm,-,N/A,,Clear,0,2011-10-25 09:06:00
5:16 AM,37.4,37.4,100,29.88,0.5,ENE,3.5,-,N/A,Fog,Fog,70,2011-10-25 09:16:00
5:23 AM,39.2,37.4,93,29.88,0.2,ENE,3.5,-,N/A,Fog,Fog,60,2011-10-25 09:23:00
5:31 AM,37.4,37.4,100,29.88,0.5,NE,3.5,-,N/A,Fog,Fog,40,2011-10-25 09:31:00
5:51 AM,37.0,37.0,100,29.89,0.5,Calm,Calm,-,N/A,Fog,Fog,0,2011-10-25 09:51:00
6:09 AM,37.4,37.4,100,29.88,0.2,Calm,Calm,-,N/A,Fog,Fog,0,2011-10-25 10:09:00
6:17 AM,35.6,35.6,100,29.88,0.5,Calm,Calm,-,N/A,Fog,Fog,0,2011-10-25 10:17:00
6:38 AM,35.6,35.6,100,29.88,0.2,Calm,Calm,-,N/A,Fog,Fog,0,2011-10-25 10:38:00
6:47 AM,35.6,35.6,100,29.88,0.8,Calm,Calm,-,N/A,,Mist,0,2011-10-25 10:47:00
6:51 AM,36.0,36.0,100,29.90,0.8,Calm,Calm,-,N/A,,Mist,0,2011-10-25 10:51:00
6:58 AM,37.4,37.4,100,29.89,1.2,Calm,Calm,-,N/A,,Partly Cloudy,0,2011-10-25 10:58:00
7:00 AM,37.4,37.4,100,29.89,2.0,Calm,Calm,-,N/A,,Partly Cloudy,0,2011-10-25 11:00:00
7:06 AM,35.6,35.6,100,29.89,1.2,Calm,Calm,-,N/A,,Partly Cloudy,0,2011-10-25 11:06:00
7:10 AM,35.6,35.6,100,29.89,0.8,Calm,Calm,-,N/A,,Mist,0,2011-10-25 11:10:00
7:16 AM,37.4,37.4,100,29.89,1.2,Calm,Calm,-,N/A,,Clear,0,2011-10-25 11:16:00
7:26 AM,37.4,35.6,93,29.89,0.5,Calm,Calm,-,N/A,Fog,Fog,0,2011-10-25 11:26:00
7:51 AM,37.9,37.9,100,29.91,1.2,Calm,Calm,-,N/A,,Clear,0,2011-10-25 11:51:00
8:01 AM,37.4,37.4,100,29.90,2.0,Calm,Calm,-,N/A,,Clear,0,2011-10-25 12:01:00
8:08 AM,37.4,37.4,100,29.90,5.0,Calm,Calm,-,N/A,,Clear,0,2011-10-25 12:08:00
8:51 AM,45.0,42.1,90,29.91,10.0,Variable,4.6,-,N/A,,Clear,0,2011-10-25 12:51:00
9:51 AM,52.0,41.0,66,29.91,10.0,WNW,13.8,19.6,N/A,,Clear,290,2011-10-25 13:51:00
10:51 AM,53.1,39.0,59,29.90,10.0,WNW,15.0,-,N/A,,Mostly Cloudy,290,2011-10-25 14:51:00
11:51 AM,54.0,37.0,53,29.90,10.0,WNW,16.1,20.7,N/A,,Overcast,300,2011-10-25 15:51:00
12:51 PM,55.0,37.0,51,29.87,10.0,WNW,17.3,25.3,N/A,,Mostly Cloudy,290,2011-10-25 16:51:00
1:51 PM,53.1,37.9,57,29.88,10.0,NNW,8.1,-,N/A,,Overcast,330,2011-10-25 17:51:00
2:51 PM,57.0,35.1,44,29.86,10.0,NW,16.1,24.2,N/A,,Scattered Clouds,310,2011-10-25 18:51:00
3:51 PM,55.9,35.1,45,29.87,10.0,NW,13.8,25.3,N/A,,Clear,310,2011-10-25 19:51:00
4:51 PM,54.0,33.1,45,29.88,10.0,NW,16.1,21.9,N/A,,Clear,310,2011-10-25 20:51:00
5:51 PM,51.1,33.1,50,29.91,10.0,NW,8.1,-,N/A,,Scattered Clouds,310,2011-10-25 21:51:00
6:51 PM,48.9,33.1,54,29.94,10.0,NW,11.5,-,N/A,,Partly Cloudy,310,2011-10-25 22:51:00
7:51 PM,48.0,30.9,52,29.96,10.0,North,10.4,-,N/A,,Clear,350,2011-10-25 23:51:00
8:51 PM,46.0,30.0,54,29.97,10.0,North,4.6,-,N/A,,Clear,10,2011-10-26 00:51:00
9:51 PM,44.1,28.9,55,29.97,10.0,NNW,8.1,-,N/A,,Clear,330,2011-10-26 01:51:00
10:51 PM,44.1,30.0,58,29.95,10.0,WNW,4.6,-,N/A,,Clear,300,2011-10-26 02:51:00
11:51 PM,42.1,30.0,62,29.96,10.0,WSW,4.6,-,N/A,,Clear,250,2011-10-26 03:51:00